This is the latest recevied weather packets stored in our database for station/object KF7PIZ. If no packets are shown the sender has not sent any weather packets the latest 10 day(s).
| Time | Temp. | Humidity | Pressure | Rain* | Wind** | Luminosity | Snow |
|---|---|---|---|---|---|---|---|
| 1777182530 | 8.89° C | 53% | 1006.1 hPa | 0 mm | - | 0 W/m² | - |
| 1777182225 | 8.89° C | 53% | 1006.2 hPa | 0 mm | - | 0 W/m² | - |
| 1777181922 | 8.89° C | 53% | 1006.4 hPa | 0 mm | - | 0 W/m² | - |
| 1777181618 | 8.89° C | 53% | 1006.2 hPa | 0 mm | - | 0 W/m² | - |
| 1777181313 | 8.89° C | 51% | 1006.5 hPa | 0 mm | - | 0 W/m² | - |
| 1777181009 | 8.89° C | 51% | 1006 hPa | 0 mm | - | 0 W/m² | - |
| 1777180705 | 8.89° C | 50% | 1006.1 hPa | 0 mm | - | 0 W/m² | - |
| 1777180401 | 8.89° C | 51% | 1006.1 hPa | 0 mm | - | 0 W/m² | - |
| 1777180098 | 9.44° C | 52% | 1006.2 hPa | 0 mm | - | 0 W/m² | - |
| 1777179793 | 9.44° C | 49% | 1006 hPa | 0 mm | - | 0 W/m² | - |
| 1777179489 | 10° C | 50% | 1006 hPa | 0 mm | - | 0 W/m² | - |
| 1777179188 | 10° C | 49% | 1006.1 hPa | 0 mm | - | 0 W/m² | - |
| 1777178884 | 10° C | 47% | 1006.2 hPa | 0 mm | - | 0 W/m² | - |
| 1777178582 | 10° C | 47% | 1006.1 hPa | 0 mm | - | 0 W/m² | - |
| 1777178277 | 10° C | 48% | 1006.1 hPa | 0 mm | - | 0 W/m² | - |
| 1777177976 | 10° C | 49% | 1006.1 hPa | 0 mm | - | 0 W/m² | - |
| 1777177671 | 10° C | 47% | 1006.2 hPa | 0 mm | - | 0 W/m² | - |
| 1777177367 | 10.56° C | 46% | 1006 hPa | 0 mm | - | 0 W/m² | - |
| 1777177064 | 10.56° C | 46% | 1006.1 hPa | 0 mm | - | 0 W/m² | - |
| 1777176760 | 10.56° C | 49% | 1006 hPa | 0 mm | - | 0 W/m² | - |
| 1777176457 | 10.56° C | 47% | 1006.2 hPa | 0 mm | - | 0 W/m² | - |
| 1777176153 | 10.56° C | 47% | 1005.8 hPa | 0 mm | - | 0 W/m² | - |
| 1777175847 | 10.56° C | 48% | 1006.1 hPa | 0 mm | - | 0 W/m² | - |
| 1777175547 | 11.11° C | 46% | 1005.9 hPa | 0 mm | - | 0 W/m² | - |
| 1777175246 | 11.11° C | 48% | 1006.2 hPa | 0 mm | - | 0 W/m² | - |
* Rain latest hour (hover to see other rain measurements)
** Current wind speed in m/s (hover to see current wind gust speed)